Find Starlink 32834

NORAD ID: 62875 Int'l Des: 2025-022 Owner: SPXS Country: US Constellation: starlink operational
LEOCIRCULAR

当前视图

正在加载3D地球...

About Starlink 32834

Starlink 32834 (NORAD 62875) is a starlink constellation satellite (v2 mini) launched Feb 2, 2025 by SPXS of US. It operates in LEO, CIRCULAR orbit with a mass of 730.00 kg.

关于 Starlink 32834

正在加载描述...

即将过境

Passes for default location (London). Set your location on the main map for personalized predictions.

高度历史

Loading altitude history...

两行轨道根数

1 62875U 25022X 26194.65376375 .00008338 00000-0 25762-3 0 9990
2 62875 53.1587 263.2616 0001042 67.4687 292.6425 15.34401421 81206
Epoch: Jul 13, 2026 • Age: 17 hours

当前状态

高度 479.4 km
远地点 / 近地点 N/A
速度 7.63 km/s
星下点 -47.03°S, 75.07°E
发射日期 Feb 2, 2025
运行时间 1.4 years
类型 internet

技术详情

分类 Payload
质量 730.00 kg
干质量 700.00 kg
总质量 730.00 kg
长度 0.30 m
直径 4.10 m
跨度 29.00 m
形状 Box + pan
制造商 SPXS
平台类型 Starlink V2M
阶段状态 In Orbit
所有者/国家 SPXS/US

Most Searched